{"data":{"norad_id":53275,"intl_designator":"2022-086AK","name":"STARLINK-4179","alt_names":[],"object_type":"PAYLOAD","status":"ACTIVE","operator":null,"country":"US","launch_date":"2022-07-24","launch_site_code":"AFETR","launch_vehicle":null,"mission":null,"orbit_class":"UNKNOWN","rcs_meters":null,"size_class":null,"mass_kg":null,"dimensions":null,"purposes":["comms"],"wikipedia_slug":null,"has_3d_model":false,"image_url":null,"decayed_at":null,"tle_current":{"epoch":"2026-05-25T03:11:49.299072Z","epoch_age_seconds":63867,"freshness":"FRESH","line1":"1 53275U 22086AK  26145.13320948 -.00000234  00000+0  33588-5 0  9999","line2":"2 53275  53.2133 200.9501 0001014  73.9310 286.1794 15.08825463212731","mean_motion":15.08825463,"eccentricity":0.0001014,"inclination_deg":53.2133,"raan_deg":200.9501,"arg_perigee_deg":73.931,"mean_anomaly_deg":286.1794,"bstar":3.3588e-6,"rev_number":21273,"period_min":95.43847418487,"perigee_km":539.08634553718,"apogee_km":540.4893006913,"semimajor_km":6917.9248231142,"source":"CELESTRAK","updated_at":"2026-05-25T13:38:17.366783Z"}}}